www.pogodaiklimat.ru

Погода и климат >> Архив погоды >> Норвегия >> Эвенстад


ПОГОДА в Эвенстаде

  • Прогноз погоды в Эвенстаде
  • Монитор погоды в Эвенстаде

АРХИВ ПОГОДЫ в Эвенстаде

Время (UTC), дата Ветер
(напр.,м/с)
 
Видим.   Явления Облачность Т
(С)
Тd
(С)
f
(%)
Тe
(С)
Тes
(С)
Комфортность P
(гПа)
Po
(гПа)
Тmin
(С)
Tmax
(С)
R
(мм)
R24
(мм)
S
(см)
16 18.06 Ю 4
{10}
н/о н/о +18.3 +7.7 50 +18 +18 1009.1 979.3
17 18.06 ЮВ 4
{10}
н/о н/о +18.4 +9.5 56 +19 +19 1008.6 978.8
18 18.06 Ю 5
{10}
н/о н/о +18.1 +7.8 51 +18 +18 1008.4 978.6 +13.8 +19.6
19 18.06 ЮВ 2
{8}
н/о н/о +16.1 +9.8 66 +16 +16 1008.7 978.7
20 18.06 ЮВ 4
{7}
н/о н/о +15.5 +11.3 76 +15 +15 1009.0 978.9
21 18.06 ЮВ 3
{7}
н/о н/о +13.8 +11.2 84 +13 +13 1009.2 979.0
22 18.06 ЮЗ 1
{5}
н/о н/о +12.1 +9.3 83 +12 +12 1009.7 979.3
23 18.06 штиль 0
{2}
н/о н/о +9.2 +8.6 96 +8 +8 1010.2 979.5
00 19.06 С 1
{8}
н/о н/о +8.5 +7.8 95 +8 +8 1010.7 979.9
01 19.06 ЮЗ 1
{3}
н/о н/о +8.4 +7.7 95 +8 +8 1010.9 980.1
02 19.06 С 1
{3}
н/о н/о +7.4 +7.1 98 +6 +6 1011.1 980.1
03 19.06 штиль 0
{1}
н/о н/о +6.8 +6.5 98 +6 +6 1011.5 980.5
04 19.06 С 1
{2}
н/о н/о +7.0 +6.7 98 +6 +6 1011.4 980.4
05 19.06 штиль 0
{1}
н/о н/о +11.1 +8.5 84 +10 +10 1010.9 980.3
06 19.06 ЮВ 2
{3}
н/о н/о +14.3 +9.7 74 +14 +14 1010.4 980.2 +6.4 +18.1
07 19.06 ЮВ 3
{5}
н/о н/о +16.1 +8.4 60 +16 +16 1009.9 979.9
08 19.06 ЮВ 3
{6}
н/о н/о +17.1 +9.0 59 +17 +17 1009.7 979.8
09 19.06 ЮВ 3
{7}
н/о н/о +17.1 +9.3 60 +17 +17 1009.9 980.0
10 19.06 ЮВ 4
{6}
н/о н/о +17.8 +8.7 55 +18 +18 1009.8 979.9
11 19.06 ЮВ 5
{7}
н/о н/о +18.9 +8.0 49 +19 +19 1009.4 979.7
12 19.06 ЮВ 6
{9}
н/о н/о +18.6 +7.7 49 +18 +18 1009.5 979.7
13 19.06 ЮВ 5
{8}
н/о н/о +19.3 +8.3 49 +20 +20 1009.1 979.4
14 19.06 ЮВ 5
{9}
н/о н/о +18.6 +7.7 49 +19 +19 1009.0 979.3
15 19.06 ЮВ 6
{10}
н/о н/о +18.9 +6.4 44 +19 +19 1008.5 978.8
16 19.06 ЮВ 5
{8}
н/о н/о +19.0 +6.8 45 +19 +19 1008.0 978.3
17 19.06 ЮВ 5
{8}
н/о н/о +18.4 +6.9 47 +18 +18 1007.9 978.2
18 19.06 ЮВ 3
{10}
н/о н/о +17.6 +8.2 54 +18 +18 1008.1 978.3 +14.3 +19.8
19 19.06 Ю 3
{8}
н/о н/о +16.7 +4.1 43 +17 +17 1008.5 978.6
20 19.06 ЮВ 2
{6}
н/о н/о +14.6 +7.9 64 +14 +14 1009.0 978.8
21 19.06 С 1
{3}
н/о н/о +13.1 +9.6 79 +13 +13 1008.8 978.5
22 19.06 З 1
{2}
н/о н/о +12.3 +10.5 89 +12 +12 1008.5 978.1
23 19.06 З 1
{3}
н/о н/о +11.9 +10.3 90 +12 +12 1008.0 977.6
00 20.06 штиль 0
{8}
н/о н/о +11.6 +10.4 92 +11 +11 1007.8 977.4
01 20.06 С 1
{2}
н/о н/о +11.0 +10.5 97 +11 +11 1007.1 976.6
02 20.06 З 1
{3}
н/о н/о +10.8 +10.5 98 +10 +10 1006.4 975.9
03 20.06 З 1
{2}
н/о н/о +10.6 +10.3 98 +10 +10 1004.9 974.5
04 20.06 ЮЗ 1
{5}
н/о н/о +10.8 +10.5 98 +10 +10 1004.9 974.5
05 20.06 СЗ 1
{3}
н/о н/о +11.0 +10.9 99 +11 +11 1004.7 974.3
06 20.06 СЗ 1
{5}
н/о н/о +11.9 +11.3 96 +12 +12 1004.4 974.1 +10.6 +17.6
07 20.06 СЗ 1
{1}
н/о н/о +13.5 +11.2 86 +14 +14 1004.0 973.9
08 20.06 СЗ 1
{1}
н/о н/о +14.1 +11.3 83 +14 +14 1003.7 973.7
09 20.06 В 2
{3}
н/о н/о +14.5 +11.8 84 +14 +14 1003.7 973.7
10 20.06 ЮВ 3
{4}
н/о н/о +15.7 +13.2 85 +15 +15 1003.5 973.6
11 20.06 ЮВ 3
{5}
н/о н/о +16.6 +13.9 84 +16 +16 1003.1 973.3
12 20.06 ЮВ 5
{7}
н/о н/о +16.7 +14.0 84 +16 +16 1002.7 972.9
13 20.06 ЮВ 4
{9}
н/о н/о +17.5 +14.4 82 +17 +17 1002.5 972.8
14 20.06 ЮВ 4
{7}
н/о н/о +17.7 +14.8 83 +17 +17 1002.1 972.5
15 20.06 В 4
{6}
н/о н/о +18.3 +14.2 77 +19 +19 1001.9 972.3
16 20.06 ЮВ 3
{5}
н/о н/о +18.1 +13.6 75 +18 +18 1001.8 972.2
17 20.06 ЮВ 2
{5}
н/о н/о +18.5 +12.7 69 +20 +20 1001.3 971.8
18 20.06 ЮВ 3
{9}
н/о н/о +19.2 +11.5 61 +20 +20 1001.3 971.8 +11.9 +19.2
19 20.06 ЮВ 2
{5}
н/о н/о +17.4 +12.1 71 +18 +18 1001.8 972.2
20 20.06 ЮВ 3
{8}
н/о н/о +16.2 +12.6 79 +16 +16 1002.2 972.4
21 20.06 ЮВ 4
{7}
н/о н/о +15.8 +12.4 80 +15 +15 1002.3 972.5
22 20.06 ЮВ 4
{7}
н/о н/о +15.5 +12.5 82 +15 +15 1002.7 972.8
23 20.06 ЮВ 2
{5}
н/о н/о +13.6 +12.0 90 +13 +13 1003.1 973.0
00 21.06 В 4
{8}
н/о н/о +13.4 +12.1 92 +12 +12 1003.4 973.3
01 21.06 ЮВ 3
{6}
н/о н/о +12.7 +11.9 95 +11 +11 1003.8 973.6
02 21.06 Ю 2
{4}
н/о н/о +11.9 +11.1 95 +11 +11 1004.1 973.8
03 21.06 С 1
{2}
н/о н/о +10.2 +9.8 97 +10 +10 1004.4 973.9
04 21.06 С 1
{2}
н/о н/о +9.8 +9.7 99 +9 +9 1004.4 973.9
05 21.06 В 4
{6}
н/о н/о +14.3 +11.5 83 +13 +13 1004.0 974.0
06 21.06 ЮВ 4
{8}
н/о н/о +16.3 +10.6 69 +16 +16 1003.8 974.0 +9.4 +19.4
07 21.06 ЮЗ 2
{6}
н/о н/о +17.9 +4.8 42 +18 +18 1003.9 974.2
08 21.06 Ю 2
{7}
н/о н/о +17.7 +6.9 49 +18 +18 1004.3 974.6
09 21.06 З 1
{8}
н/о н/о +18.1 +7.5 50 +19 +19 1004.6 974.9
10 21.06 ЮЗ 3
{8}
н/о н/о +17.7 +5.0 43 +18 +18 1004.7 975.0
11 21.06 ЮЗ 3
{8}
н/о н/о +19.9 +6.6 42 +21 +21 комфорт 1004.6 975.1
12 21.06 Ю 2
{11}
н/о н/о +20.3 +4.8 36 +22 +22 комфорт 1004.5 975.1
13 21.06 З 2
{10}
н/о н/о +20.8 +5.6 37 +22 +22 комфорт 1004.6 975.2
14 21.06 ЮЗ 2
{8}
н/о н/о +20.9 +4.5 34 +22 +22 комфорт 1004.5 975.1
15 21.06 Ю 3
{8}
н/о н/о +20.1 +1.6 29 +21 +21 комфорт 1004.4 974.9
16 21.06 ЮЗ 2
{7}
н/о н/о +19.7 +1.7 30 +21 +21 комфорт 1004.4 974.9
17 21.06 Ю 5
{10}
н/о н/о +17.4 +5.1 44 +17 +17 1005.0 975.3
18 21.06 Ю 4
{10}
н/о н/о +17.8 +3.7 39 +18 +18 1005.0 975.3 +16.3 +22.2
19 21.06 З 3
{9}
н/о н/о +15.4 +5.1 50 +15 +15 1006.0 976.0
20 21.06 СЗ 3
{9}
н/о н/о +13.7 +5.4 57 +13 +13 1007.1 976.9
21 21.06 СЗ 1
{6}
н/о н/о +12.4 +6.0 65 +13 +13 1008.1 977.8
22 21.06 З 1
{2}
н/о н/о +10.6 +7.5 81 +10 +10 1008.8 978.2
23 21.06 С 1
{3}
н/о н/о +9.7 +7.5 86 +9 +9 1009.6 978.9
00 22.06 Ю 1
{9}
н/о н/о +8.5 +7.4 93 +8 +8 1010.0 979.2
01 22.06 З 1
{3}
н/о н/о +8.6 +7.9 95 +8 +8 1011.1 980.3
02 22.06 СЗ 2
{3}
н/о н/о +8.2 +7.8 97 +6 +6 1012.0 981.1
03 22.06 СВ 1
{3}
н/о н/о +6.3 +5.7 96 +5 +5 1013.2 982.0
04 22.06 СЗ 1
{2}
н/о н/о +5.8 +5.5 98 +4 +4 1013.5 982.3
05 22.06 штиль 0
{3}
н/о н/о +10.3 +5.9 74 +10 +10 1013.3 982.6
06 22.06 ЮВ 1
{3}
н/о н/о +12.6 +6.0 64 +13 +13 1013.7 983.2 +5.3 +17.8
07 22.06 СЗ 2
{3}
н/о н/о +14.9 +4.3 49 +15 +15 1013.9 983.6
08 22.06 СЗ 2
{6}
н/о н/о +16.7 +4.4 44 +17 +17 1014.3 984.2
09 22.06 С 3
{11}
н/о н/о +13.7 +3.5 50 +13 +13 1015.0 984.6
10 22.06 З 1
{6}
н/о н/о +13.3 +7.1 66 +14 +14 1015.7 985.2
11 22.06 ЮВ 2
{10}
н/о н/о +14.0 +5.6 57 +14 +14 1016.0 985.6
12 22.06 З 2
{11}
н/о н/о +19.1 +4.9 39 +20 +20 1015.1 985.2
13 22.06 СЗ 2
{12}
н/о н/о +13.8 +6.7 62 +13 +13 1016.2 985.8
14 22.06 З 2
{5}
н/о н/о +18.8 +4.6 39 +20 +20 1015.5 985.6
15 22.06 З 2
{9}
н/о н/о +19.6 +2.5 32 +20 +20 1016.0 986.2
16 22.06 З 3
{9}
н/о н/о +18.4 +1.9 33 +19 +19 1016.2 986.2
17 22.06 З 3
{11}
н/о н/о +18.3 +2.2 34 +19 +19 1016.6 986.6
18 22.06 З 2
{12}
н/о н/о +17.2 +2.4 37 +18 +18 1017.3 987.2 +11.0 +20.1
19 22.06 З 1
{6}
н/о н/о +15.2 +2.7 43 +16 +16 1017.8 987.5
20 22.06 СВ 1
{5}
н/о н/о +12.8 +2.9 51 +13 +13 1018.5 987.9
21 22.06 ЮВ 2
{4}
н/о н/о +12.7 +2.0 48 +12 +12 1019.3 988.6
22 22.06 ЮВ 2
{4}
н/о н/о +9.5 +2.6 62 +8 +8 1020.2 989.2
23 22.06 ЮВ 1
{3}
н/о н/о +6.7 +3.5 80 +6 +6 1021.0 989.7
00 23.06 В 1
{6}
н/о н/о +6.5 +3.5 81 +6 +6 1020.8 989.4
01 23.06 СВ 1
{2}
н/о н/о +4.7 +3.1 89 +3 +3 1021.3 989.7
02 23.06 ЮВ 1
{3}
н/о н/о +4.6 +3.1 90 +3 +3 1021.6 990.0
03 23.06 ЮЗ 1
{2}
н/о н/о +4.9 +3.4 90 +4 +4 1022.0 990.4
04 23.06 С 1
{2}
н/о н/о +5.0 +3.7 91 +4 +4 1022.1 990.5
05 23.06 СВ 1
{2}
н/о н/о +10.2 +5.0 70 +10 +10 1021.5 990.5
06 23.06 ЮВ 2
{3}
н/о н/о +13.3 +4.0 53 +13 +13 1021.4 990.7 +4.4 +17.3
07 23.06 З 1
{3}
н/о н/о +13.3 +6.0 61 +14 +14 1021.7 991.0
08 23.06 С 1
{3}
н/о н/о +15.4 +5.1 50 +16 +16 1021.5 991.1
09 23.06 СЗ 1
{3}
н/о н/о +18.0 +5.3 43 +19 +19 1021.0 990.8
10 23.06 З 2
{5}
н/о н/о +19.1 +3.7 36 +20 +20 1021.1 991.0
11 23.06 ЮЗ 1
{4}
н/о н/о +18.6 +2.1 33 +20 +20 1020.8 990.7
12 23.06 З 3
{6}
н/о н/о +15.8 +7.6 58 +15 +15 1021.7 991.3
13 23.06 З 1
{4}
н/о н/о +19.5 +7.6 46 +21 +21 комфорт 1021.4 991.4
14 23.06 З 2
{7}
н/о н/о +18.2 +5.4 43 +19 +19 1021.6 991.5
15 23.06 З 1
{6}
н/о н/о +18.5 +7.0 47 +20 +20 1021.7 991.5
16 23.06 З 2
{6}
н/о н/о +19.2 +5.3 40 +20 +20 1021.5 991.5
17 23.06 З 2
{7}
н/о н/о +16.6 +5.6 48 +17 +17 1022.1 991.8
18 23.06 СЗ 1
{7}
н/о н/о +19.2 +4.6 38 +21 +21 комфорт 1022.0 991.9 +13.1 +20.3
19 23.06 СЗ 2
{7}
н/о н/о +17.1 +3.8 41 +17 +17 1022.9 992.6
20 23.06 СЗ 2
{5}
н/о н/о +14.6 +5.2 53 +14 +14 1024.3 993.7
21 23.06 С 1
{5}
н/о н/о +11.9 +4.9 62 +12 +12 1025.9 995.0
22 23.06 СЗ 1
{2}
н/о н/о +10.4 +5.8 73 +10 +10 1027.1 996.0
23 23.06 СЗ 1
{2}
н/о н/о +8.7 +6.2 84 +8 +8 1028.8 997.4
00 24.06 СЗ 1
{7}
н/о н/о +7.6 +6.1 90 +7 +7 1029.4 997.9
01 24.06 З 1
{3}
н/о н/о +6.4 +4.7 89 +5 +5 1030.0 998.4
02 24.06 З 1
{3}
н/о н/о +5.4 +4.1 91 +4 +4 1030.7 998.9
03 24.06 З 1
{4}
н/о н/о +5.5 +4.0 90 +4 +4 1031.0 999.2
04 24.06 СЗ 1
{2}
н/о н/о +5.1 +4.5 96 +4 +4 1031.3 999.5
05 24.06 С 1
{3}
н/о н/о +9.6 +5.8 77 +9 +9 1031.0 999.7
06 24.06 СЗ 1
{4}
н/о н/о +11.7 +6.2 69 +12 +12 1030.6 999.5 +4.6 +19.3
07 24.06 З 1
{3}
н/о н/о +14.0 +7.3 64 +14 +14 1030.2 999.3
08 24.06 ЮВ 3
{5}
н/о н/о +16.2 +6.4 52 +16 +16 1029.5 998.9
09 24.06 ЮВ 4
{6}
н/о н/о +17.8 +7.6 51 +18 +18 1029.0 998.6
10 24.06 ЮВ 4
{7}
н/о н/о +19.3 +7.7 47 +20 +20 1028.5 998.2
11 24.06 ЮВ 4
{7}
н/о н/о +20.0 +8.4 47 +21 +21 комфорт 1027.7 997.5
12 24.06 ЮВ 5
{9}
н/о н/о +19.7 +6.1 41 +20 +20 1027.5 997.3
13 24.06 ЮВ 6
{9}
н/о н/о +21.0 +6.5 39 +22 +22 комфорт 1026.8 996.8
14 24.06 Ю 2
{10}
н/о н/о +22.3 +6.5 36 +23 +23 комфорт 1026.6 996.7
15 24.06 Ю 4
{8}
н/о н/о +21.6 +6.3 37 +22 +22 комфорт 1026.4 996.4
16 24.06 Ю 3
{10}
н/о н/о +20.3 +5.5 38 +21 +21 комфорт 1026.5 996.4
17 24.06 Ю 2
{6}
н/о н/о +19.8 +5.1 38 +21 +21 комфорт 1026.4 996.3
18 24.06 Ю 2
{10}
н/о н/о +19.4 +6.9 44 +21 +21 комфорт 1026.4 996.2 +11.7 +22.9
19 24.06 ЮВ 2
{5}
н/о н/о +18.6 +6.8 46 +19 +19 1026.4 996.2
20 24.06 ЮВ 2
{5}
н/о н/о +16.8 +7.5 54 +17 +17 1027.1 996.6
21 24.06 ЮВ 3
{4}
н/о н/о +16.6 +7.0 53 +16 +16 1027.3 996.8
22 24.06 ЮВ 1
{2}
н/о н/о +14.1 +10.1 77 +14 +14 1027.7 997.0
23 24.06 Ю 1
{7}
н/о н/о +16.0 +7.8 58 +17 +17 1027.8 997.2
00 25.06 ЮВ 2
{7}
н/о н/о +14.8 +9.2 69 +15 +15 1028.1 997.4
01 25.06 штиль 0
{2}
н/о н/о +12.3 +11.4 94 +12 +12 1028.4 997.4
02 25.06 ЮЗ 1
{2}
н/о н/о +11.9 +11.4 97 +12 +12 1028.2 997.2
03 25.06 В 1
{2}
н/о н/о +11.7 +11.4 98 +11 +11 1028.1 997.1
04 25.06 штиль 0
{2}
н/о н/о +11.7 +11.4 98 +11 +11 1027.9 996.9
05 25.06 ЮВ 1
{1}
н/о н/о +11.9 +11.4 97 +12 +12 1027.9 996.9
06 25.06 СЗ 1
{2}
н/о н/о +12.3 +11.8 97 +12 +12 1027.7 996.8 +11.7 +19.4
07 25.06 СВ 1
{2}
н/о н/о +12.7 +11.9 95 +13 +13 1027.7 996.8
08 25.06 СВ 1
{2}
н/о н/о +12.5 +11.1 91 +12 +12 1027.5 996.6
09 25.06 С 1
{2}
н/о н/о +12.7 +11.8 94 +13 +13 1027.2 996.3
10 25.06 штиль 0
{1}
н/о н/о +13.1 +11.7 91 +13 +13 1026.9 996.1
11 25.06 СВ 1
{2}
н/о н/о +13.5 +12.2 92 +14 +14 1026.5 995.7
12 25.06 ЮВ 2
{3}
н/о н/о +13.7 +12.9 95 +13 +13 1025.8 995.0
13 25.06 ЮВ 3
{5}
н/о н/о +14.2 +12.9 92 +13 +13 1025.1 994.4
14 25.06 ЮВ 3
{6}
н/о н/о +14.7 +12.9 89 +14 +14 1024.6 994.0
15 25.06 ЮВ 3
{6}
н/о н/о +14.4 +13.0 91 +13 +13 1023.9 993.3
16 25.06 ЮВ 2
{6}
н/о н/о +14.4 +13.1 92 +14 +14 1023.8 993.2
17 25.06 ЮВ 3
{4}
н/о н/о +14.7 +13.1 90 +14 +14 1023.5 992.9

 

Местоположение метеостанции Эвенстад (Норвегия): широта 61.42 долгота 11.08 высота над уровнем моря 257 м.

В архиве по умолчанию представлена погода в Эвенстаде за последнюю неделю. Архивные данные за месяц целиком и за предыдущие месяцы, начиная с января 2011 года, Вы можете получить, выбрав интересующий диапазон дат из раскрывающегося списка и нажав кнопку "Ввод!".


*Определитесь, кто Вы:
робот инопланетянин человек

Внимание! Время в таблицах - всемирное. Для получения местного времени необходимо прибавить поправку, которая равна 1 ч.

Смотрите также архив погоды в соседних городах и на ближайших метеорологических станциях:

Погода в Рена аэропорту (Норвегия) (30 км)
Погода в Фаванге (Норвегия) (48 км)
Погода в Лиллехаммере (Норвегия) (49 км)
Погода в Квитфеле (Норвегия) (51 км)
Погода в Венабу (Норвегия) (58 км)
Погода в Трюсиль Вегстасьон (Норвегия) (65 км)
Погода в Хамар аэропорту (Норвегия) (67 км)
Погода в Хамаре (Норвегия) (69 км)
Погода в Древсё (Норвегия) (73 км)
Погода в Кисе Па Хедмарк (Норвегия) (74 км)

Пояснения к столбцам:

Ветер - указаны скорость ветра в м/с - средняя за 10 мин, порывы в срок и между сроками (в фигурных скобках) и направление, откуда дует ветер: С - северный, СВ - северо-восточный, В - восточный, ЮВ - юго-восточный, Ю - южный, ЮЗ - юго-западный, З - западный, СЗ - северо-западный.
Видимость - горизонтальная дальность видимости в метрах или километрах. При видимости от 1 до 10 км при отсутствии осадков обычно наблюдается дымка, при ухудшении видимости до 1 км и менее - туман. В сухую погоду видимость может ухудшаться дымом, пылью или мглою.
Явления - указаны атмосферные явления, наблюдавшиеся в срок или в последний час перед сроком; фигурными скобками обозначены явления, наблюдавшиеся между сроками (за 1-3 часа до срока); квадратными скобками обозначены град или гололедные отложения с указанием их диаметра в мм.
Облачность - указаны через наклонную черту общая и нижняя облачность в баллах и высота нижней границы облаков в метрах; квадратными скобками обозначены формы облаков: Ci - перистые, Cs - перисто-слоистые, Cc - перисто-кучевые, Ac - высококучевые, As - высокослоистые, Sc - слоисто-кучевые, Ns - слоисто-дождевые, Cu - кучевые, Cb - кучево-дождевые. Подробнее классификацию облаков см. в Атласе облаков (PDF).
T - Температура воздуха - температура, измеренная на высоте 2 м над землей.
Td - Температура точки росы - температура, при понижении до которой содержащийся в воздухе водяной пар достигнет насыщения.
f - Относительная влажность воздуха - влажноcть воздуха, измеренная на высоте 2 м над землей.
Te - Эффективная температура - температура, которую ощущает одетый по сезону человек в тени. Характеристика душности погоды. При расчете учитывается влияние влажности воздуха и скорости ветра на теплоощущения человека.
Tes - Эффективная температура на солнце - температура, которую ощущает человек, с поправкой на солнечный нагрев. Характеристика знойности погоды. Зависит от высоты солнца над горизонтом, облачности и скорости ветра. Ночью, в пасмурную погоду, а также при ветре 12 м/с и более поправка равна нулю.
P - Атмосферное давление - приведенное к уровню моря атмосферное давление.
Po - Атмосферное давление - измеренное на уровне метеостанции атмосферное давление.
Tmin - Минимальная температура - минимум температуры воздуха на высоте 2 м над землей.
Tmax - Максимальная температура - максимум температуры воздуха на высоте 2 м над землей.
R - Количество осадков - Количество выпавших осадков за период времени, мм. При наведении курсора мыши на число - период времени, за который выпало указанное количество осадков.
R24 - Количество осадков - Количество выпавших осадков за 24 часа, мм.
S - Снежный покров - Высота снежного покрова, см. При наведении курсора мыши на число - состояние снежного покрова и степень покрытия местности в баллах.